Location: Hurstbourne Priors
(51.2000°N, 1.3667°W)
Time: 07:12:58
(UTC+00:00)

Cosmos 1408 Rocket - Pass Details

Date: 09 April 2020
Orbit: 600 x 632 km, 82.6° (Epoch: 02 June)

Event Time Altitude Azimuth Distance (km) Brightness Sun altitude
Rises 21:24:40 0° 353° (N) 2,935 7.9 -21.3°
Reaches altitude 10° 21:26:59 10° 359° (N) 2,019 6.8 -21.5°
Maximum altitude 21:31:20 49° 75° (ENE) 811 3.9 -22.0°
Enters shadow 21:31:25 49° 78° (ENE) 812 3.9 -22.0°
